Probability
71 68 68 58 58 68 65 52 52 42 35 32 39 42 45 42 48 55 61 68 61 61 68 74 87 68 58 55 45 42 23 16 13 13 13 13 13 13 13 13 13 10 6
61 71 61 61 58 65 55 48 52 45 42 45 45 42 42 42 52 48 45 48 48 55 52 65 68 65 58 48 32 26 19 16 13 13 13 10 6 10 10 10 10 6 6
45 42 48 52 55 52 48 45 35 29 32 32 29 32 16 16 19 29 32 35 39 42 45 45 52 45 45 42 29 23 19 16 16 13 10 6 6 3 0 0 3 3 0
42 39 39 42 45 45 45 35 26 13 16 23 26 19 13 10 10 16 16 10 19 26 26 35 35 39 29 32 29 26 26 16 10 10 10 6 3 0 0 0 0 0 0
39 32 32 42 39 32 32 23 16 16 16 10 10 10 3 6 0 0 0 3 3 13 13 23 23 26 23 23 23 23 26 16 6 3 6 10 3 6 3 0 0 0 0
29 29 29 26 26 23 23 23 19 19 16 19 16 6 3 0 0 0 0 0 0 3 6 13 10 10 10 10 16 23 19 16 3 10 10 6 0 0 0 0 0 0 0
10 10 16 10 16 16 16 10 13 19 13 16 13 10 3 0 0 0 0 0 0 0 3 6 13 13 6 10 10 13 10 16 3 3 6 3 3 0 0 0 0 0 0
3 3 3 3 6 10 13 10 10 10 3 6 6 0 0 0 0 0 0 0 0 0 0 3 6 10 6 3 3 6 6 6 6 0 3 3 3 0 0 0 0 0 0
0 0 0 0 0 0 0 0 10 6 6 3 3 0 0 0 0 0 0 0 0 0 0 3 3 0 6 6 3 3 6 6 6 3 3 0 0 0 0 0 0 0 0
0 0 0 0 0 0 0 0 0 3 0 3 0 3 0 0 0 0 0 0 0 0 0 0 0 0 3 10 3 6 6 3 3 0 0 0 0 0 0 0 0 0 0
0 0 0 0 0 0 0 0 0 0 0 0 0 0 0 0 0 0 0 0 0 0 0 0 0 0 0 0 0 0 0 0 0 0 0 0 0 0 0 0 0 0 0
0 0 0 0 0 0 0 0 0 0 0 0 0 0 0 0 0 0 0 0 0 0 0 0 0 0 0 0 0 0 0 0 0 0 0 0 0 0 0 0 0 0 0
0 0 0 0 0 0 0 0 0 0 0 0 0 0 0 0 0 0 0 0 0 0 0 0 0 0 0 0 0 0 0 0 0 0 0 0 0 0 0 0 0 0 0
0 0 0 0 0 0 0 0 0 0 0 0 0 0 0 0 0 0 0 0 0 0 0 0 0 0 0 0 0 0 0 0 0 0 0 0 0 0 0 0 0 0 0
0 0 0 0 0 0 0 0 0 0 0 0 0 0 0 0 0 0 0 0 0 0 0 0 0 0 0 0 0 0 0 0 0 0 0 0 0 0 0 0 0 0 0
0 0 0 0 0 0 0 0 0 0 0 0 0 0 0 0 0 0 0 0 0 0 0 0 0 0 0 0 0 0 0 0 0 0 0 0 0 0 0 0 0 0 0
0 0 0 0 0 0 0 0 0 0 0 0 0 0 0 0 0 0 0 0 0 0 0 0 0 0 0 0 0 0 0 0 0 0 0 0 0 0 0 0 0 0 0
0 0 0 0 0 0 0 0 0 0 0 0 0 0 0 0 0 0 0 0 0 0 0 0 0 0 0 0 0 0 0 0 0 0 0 0 0 0 0 0 0 0 0
0 0 0 0 0 0 0 0 0 0 0 0 0 0 0 0 0 0 0 0 0 0 0 0 0 0 0 0 0 0 0 0 0 0 0 0 0 0 0 0 0 0 0
0 0 0 0 0 0 0 0 0 0 0 0 0 0 0 0 0 0 0 0 0 0 0 0 0 0 0 0 0 0 0 0 0 0 0 0 0 0 0 0 0 0 0
0 0 0 0 0 0 0 0 0 0 0 0 0 0 0 0 0 0 0 0 0 0 0 0 0 0 0 0 0 0 0 0 0 0 0 0 0 0 0 0 0 0 0
0 0 0 0 0 0 0 0 0 0 0 0 0 0 0 0 0 0 0 0 0 0 0 0 0 0 0 0 0 0 0 0 0 0 0 0 0 0 0 0 0 0 0
0 0 0 0 0 0 0 0 0 0 0 0 0 0 0 0 0 0 0 0 0 0 0 0 0 0 0 0 0 0 0 0 0 0 0 0 0 0 0 0 0 0 0
0 0 0 0 0 0 0 0 0 0 0 0 0 0 0 0 0 0 0 0 0 0 0 0 0 0 0 0 0 0 0 0 0 0 0 0 0 0 0 0 0 0 0
0 0 0 0 0 0 0 0 0 0 0 0 0 0 0 0 0 0 0 0 0 0 0 0 0 0 0 0 0 0 0 0 0 0 0 0 0 0 0 0 0 0 0
0 0 0 0 0 0 0 0 0 0 0 0 0 0 0 0 0 0 0 0 0 0 0 0 0 0 0 0 0 0 0 0 0 0 0 0 0 0 0 0 0 0 0
Height
5876 5874 5872 5869 5867 5864 5862 5860 5857 5855 5853 5850 5848 5845 5842 5840 5838 5836 5834 5832 5830 5828 5826 5825 5824 5823 5822 5821 5819 5818 5817 5817 5816 5816 5817 5817 5817 5817 5818 5817 5817 5818 5818
5870 5868 5866 5863 5860 5858 5855 5853 5850 5847 5845 5843 5841 5838 5835 5833 5830 5828 5826 5823 5822 5820 5818 5817 5815 5814 5813 5811 5810 5809 5808 5808 5807 5807 5807 5808 5809 5809 5808 5808 5808 5809 5809
5864 5862 5860 5857 5854 5851 5849 5846 5843 5841 5838 5835 5833 5830 5828 5825 5822 5820 5817 5815 5813 5811 5809 5808 5806 5805 5803 5802 5801 5800 5799 5799 5798 5798 5798 5798 5799 5799 5800 5800 5800 5800 5801
5858 5856 5853 5851 5848 5845 5842 5839 5836 5834 5831 5828 5825 5822 5819 5817 5814 5811 5809 5806 5804 5802 5800 5799 5797 5796 5794 5793 5792 5791 5790 5790 5790 5789 5788 5788 5789 5790 5791 5791 5791 5792 5792
5852 5849 5847 5845 5842 5839 5836 5833 5830 5827 5824 5822 5819 5815 5812 5809 5806 5803 5800 5797 5795 5793 5791 5789 5787 5786 5785 5783 5782 5781 5781 5780 5780 5780 5779 5779 5780 5781 5782 5783 5783 5783 5784
5845 5843 5841 5839 5836 5833 5830 5827 5824 5821 5819 5816 5812 5809 5806 5802 5798 5794 5791 5788 5786 5783 5781 5779 5777 5776 5775 5774 5772 5772 5771 5770 5770 5770 5770 5770 5771 5772 5773 5774 5774 5774 5775
5840 5838 5835 5833 5830 5827 5824 5821 5818 5816 5813 5810 5806 5802 5799 5795 5791 5787 5783 5780 5777 5774 5771 5769 5767 5765 5764 5763 5762 5761 5760 5760 5760 5760 5760 5761 5761 5762 5762 5763 5764 5764 5765
5834 5832 5829 5827 5824 5821 5817 5815 5812 5809 5806 5802 5799 5795 5791 5787 5783 5779 5775 5771 5768 5765 5762 5759 5757 5755 5753 5752 5750 5750 5749 5749 5749 5749 5750 5750 5751 5752 5752 5753 5754 5754 5755
5827 5825 5822 5819 5816 5813 5810 5807 5804 5801 5797 5794 5790 5787 5783 5779 5775 5771 5767 5763 5759 5756 5752 5749 5747 5744 5742 5741 5739 5739 5738 5738 5738 5739 5739 5740 5740 5741 5742 5742 5743 5745 5746
5819 5816 5813 5810 5807 5804 5802 5798 5795 5792 5788 5785 5781 5778 5774 5770 5766 5762 5758 5754 5750 5746 5743 5740 5737 5734 5732 5730 5729 5728 5727 5727 5727 5728 5728 5729 5729 5730 5731 5733 5734 5735 5737
5811 5808 5805 5801 5798 5795 5792 5788 5785 5782 5778 5775 5772 5768 5765 5761 5757 5753 5749 5745 5741 5737 5734 5730 5727 5724 5722 5719 5718 5717 5717 5717 5717 5717 5718 5718 5720 5721 5722 5723 5725 5727 5729
5801 5798 5795 5791 5788 5784 5781 5778 5775 5771 5768 5765 5761 5758 5755 5751 5747 5744 5740 5736 5732 5729 5725 5721 5718 5715 5712 5710 5709 5707 5706 5706 5707 5707 5708 5709 5710 5712 5713 5715 5717 5719 5721
5791 5788 5784 5780 5777 5773 5770 5766 5763 5760 5757 5753 5750 5747 5744 5740 5737 5734 5731 5727 5723 5720 5716 5713 5709 5706 5704 5701 5700 5698 5697 5697 5697 5698 5699 5700 5702 5704 5705 5707 5709 5711 5714
5780 5777 5773 5769 5765 5761 5758 5754 5751 5747 5744 5741 5738 5735 5732 5729 5727 5724 5720 5717 5714 5711 5707 5704 5701 5698 5696 5693 5691 5690 5689 5689 5690 5690 5691 5692 5694 5696 5698 5700 5702 5704 5707
5769 5765 5761 5757 5752 5748 5744 5740 5737 5733 5729 5726 5724 5721 5719 5717 5715 5712 5709 5707 5704 5702 5699 5696 5694 5691 5689 5686 5684 5683 5682 5682 5683 5683 5685 5686 5688 5690 5692 5694 5696 5698 5701
5756 5752 5747 5742 5737 5733 5729 5725 5721 5717 5714 5711 5708 5706 5704 5702 5701 5699 5698 5696 5694 5692 5690 5687 5686 5684 5682 5680 5678 5677 5676 5676 5677 5677 5679 5680 5682 5684 5686 5688 5691 5693 5696
5741 5736 5730 5725 5720 5715 5710 5707 5703 5699 5696 5693 5691 5689 5687 5687 5686 5685 5685 5684 5683 5681 5680 5679 5677 5676 5675 5673 5672 5671 5671 5671 5671 5672 5673 5675 5677 5679 5681 5683 5686 5688 5691
5724 5717 5711 5706 5700 5695 5690 5686 5682 5678 5675 5673 5671 5669 5669 5669 5669 5670 5670 5671 5670 5670 5670 5670 5669 5669 5668 5667 5666 5665 5665 5665 5666 5667 5669 5671 5672 5674 5676 5679 5681 5684 5687
5703 5696 5690 5683 5677 5671 5665 5662 5658 5655 5652 5650 5649 5648 5648 5649 5650 5652 5654 5656 5657 5659 5660 5660 5660 5661 5661 5661 5661 5660 5661 5661 5662 5663 5665 5667 5668 5670 5673 5675 5678 5681 5684
5682 5674 5667 5659 5653 5646 5640 5637 5633 5630 5627 5626 5625 5625 5626 5628 5630 5633 5637 5640 5643 5646 5649 5650 5651 5653 5654 5655 5655 5656 5656 5657 5658 5660 5662 5664 5665 5668 5670 5673 5675 5678 5681
5658 5649 5642 5635 5628 5621 5616 5613 5609 5606 5604 5604 5604 5604 5605 5608 5611 5615 5620 5624 5629 5633 5637 5640 5642 5645 5647 5648 5650 5651 5652 5653 5655 5657 5659 5661 5663 5666 5668 5671 5674 5677 5679
5634 5625 5617 5612 5605 5598 5593 5591 5588 5585 5584 5583 5584 5584 5586 5589 5593 5598 5603 5609 5614 5620 5625 5629 5633 5637 5640 5642 5644 5646 5648 5649 5652 5654 5656 5659 5661 5664 5667 5669 5672 5675 5677
5611 5604 5597 5592 5587 5581 5576 5573 5571 5568 5567 5566 5566 5566 5568 5570 5575 5580 5586 5592 5599 5606 5613 5619 5624 5628 5632 5636 5639 5641 5643 5646 5648 5651 5654 5657 5659 5662 5665 5668 5670 5673 5675
5593 5587 5581 5576 5573 5568 5563 5560 5557 5554 5552 5550 5549 5549 5551 5553 5557 5564 5571 5577 5585 5593 5601 5609 5615 5620 5625 5629 5633 5636 5639 5642 5645 5648 5651 5654 5657 5660 5663 5666 5668 5671 5673
5580 5574 5569 5564 5561 5557 5553 5549 5545 5541 5538 5536 5535 5534 5535 5536 5541 5547 5554 5563 5572 5582 5591 5599 5607 5613 5619 5623 5628 5631 5635 5639 5642 5645 5649 5652 5655 5658 5661 5663 5666 5668 5670
5569 5564 5559 5554 5550 5546 5541 5537 5532 5528 5525 5523 5521 5521 5521 5523 5527 5532 5540 5550 5561 5571 5581 5590 5599 5606 5612 5617 5622 5627 5631 5635 5639 5643 5646 5649 5652 5655 5658 5660 5663 5665 5666
Wind_Speed
28 29 30 30 31 33 34 35 35 34 34 35 35 34 35 35 35 35 35 36 37 38 40 40 41 41 42 43 43 43 40 38 37 37 36 36 35 35 35 36 35 35 34
30 31 31 31 32 34 35 35 35 35 36 36 35 34 34 34 34 35 35 36 36 37 38 39 40 41 41 40 40 41 40 38 37 36 35 34 34 33 33 34 35 35 34
31 31 31 31 32 33 33 35 35 36 36 36 35 35 34 34 34 35 35 36 36 36 37 38 39 39 40 40 40 40 37 36 35 35 35 34 32 32 31 32 33 33 32
32 31 31 31 32 33 34 35 35 35 35 35 35 35 34 34 34 34 35 35 36 37 37 38 39 39 40 40 39 39 37 36 36 36 35 34 31 31 30 31 31 31 31
30 29 29 30 31 32 33 34 34 33 33 33 33 33 33 34 34 34 35 35 36 36 38 39 39 39 39 39 39 38 37 37 36 35 34 33 32 31 31 32 32 32 31
26 27 27 28 29 30 32 32 32 32 32 31 30 31 31 32 33 34 34 35 35 36 37 38 39 39 39 39 39 39 38 37 36 35 35 34 34 34 34 33 33 33 33
25 25 26 27 28 30 31 31 31 31 30 29 29 30 31 31 32 33 33 34 34 35 36 37 38 39 39 39 39 39 39 38 37 36 36 35 35 35 35 34 35 34 34
24 25 26 27 28 29 29 30 30 30 30 30 30 30 31 31 32 33 34 34 34 35 35 36 37 38 39 39 39 39 38 37 37 36 36 36 35 35 35 35 35 35 33
24 25 26 27 28 29 30 30 31 31 32 32 32 33 33 34 34 34 34 35 35 35 35 36 36 37 37 38 38 38 37 37 36 36 36 35 34 34 34 33 33 33 32
26 27 28 29 30 31 32 32 33 34 35 35 36 36 37 37 36 36 36 35 35 35 35 35 35 35 36 37 37 37 36 36 36 35 35 34 33 32 31 31 30 30 30
29 31 32 34 34 35 36 36 37 38 38 39 39 39 39 39 38 38 37 36 36 36 35 35 34 34 34 34 34 34 34 34 34 33 32 31 30 29 30 30 29 28 27
33 35 36 38 39 40 41 42 42 42 43 42 42 42 42 41 41 40 39 38 37 36 35 35 34 33 32 31 31 31 31 31 30 30 29 28 28 28 28 28 28 27 26
38 39 41 42 44 46 47 48 48 47 47 47 46 45 45 44 43 42 40 39 38 36 36 34 33 32 31 30 30 29 28 27 27 27 27 27 26 27 27 27 26 26 25
42 43 45 48 50 51 52 53 53 53 52 52 51 49 48 46 45 43 41 40 38 37 36 34 32 31 29 28 27 26 25 24 24 24 24 24 24 24 25 24 24 24 24
47 49 51 53 54 56 57 57 58 58 57 57 56 54 52 49 47 45 43 41 38 37 35 33 31 30 28 26 24 23 22 22 21 21 21 21 21 22 22 22 23 23 22
52 54 56 58 59 60 61 62 62 62 62 62 61 59 56 53 50 47 44 42 39 36 34 32 30 29 26 24 22 21 20 19 19 19 19 19 20 20 21 21 21 21 21
58 60 62 63 65 66 67 68 68 68 66 65 64 61 58 55 52 49 45 42 39 35 33 31 29 27 25 23 21 19 18 18 18 17 18 19 19 19 19 19 19 19 18
64 66 67 69 71 72 72 73 72 71 69 67 65 63 60 57 54 50 45 41 39 35 32 30 28 25 23 21 19 17 16 16 16 16 16 17 18 17 18 18 17 17 16
70 72 74 75 75 76 76 75 75 73 71 69 66 63 60 57 54 51 47 43 40 36 33 30 27 25 22 20 18 15 14 14 14 14 14 14 15 14 14 15 15 15 14
74 76 77 78 78 78 78 76 74 71 67 63 59 56 54 51 49 48 45 42 39 37 33 30 27 24 21 20 17 15 14 13 12 12 12 12 12 12 13 13 13 13 13
78 78 78 76 75 73 72 69 65 61 58 54 51 49 48 46 44 43 42 40 38 37 33 29 27 24 21 19 17 15 14 13 12 12 12 12 12 12 13 13 13 12 11
76 74 72 68 65 63 61 57 53 50 48 46 44 44 43 43 43 41 41 40 39 38 34 30 28 25 21 19 17 16 14 13 13 13 13 13 13 13 14 13 12 12 11
67 63 60 57 53 50 48 45 43 42 41 39 39 39 39 39 40 40 39 41 40 38 34 30 28 26 23 20 19 17 16 15 15 14 15 15 14 14 13 12 12 11 10
55 52 48 45 41 40 39 39 39 38 38 37 37 36 36 37 38 40 41 40 38 38 35 31 29 27 24 22 20 18 17 16 16 15 15 15 14 13 12 12 12 11 10
45 43 41 38 37 36 37 38 39 39 37 36 34 33 34 35 36 39 43 42 37 36 34 31 30 28 26 24 22 21 20 18 17 17 16 15 14 13 13 12 12 11 11
40 38 38 37 36 37 37 38 38 38 37 35 32 31 30 31 33 36 40 41 38 37 35 34 32 30 28 27 24 23 21 20 19 18 17 16 15 14 13 12 12 12 11
Wind_Direction
292 294 294 292 290 290 292 294 295 297 299 300 301 301 300 299 296 293 289 286 283 280 277 277 275 275 275 274 275 276 276 275 275 273 271 268 267 268 269 268 269 270 271
288 291 290 288 288 291 294 296 297 300 303 304 304 303 302 301 298 294 291 287 284 282 280 279 279 277 277 277 278 277 277 274 274 274 273 270 269 268 269 270 270 270 270
285 286 286 286 287 290 294 297 299 303 305 306 307 307 305 302 299 296 292 289 286 284 282 281 279 279 279 278 278 278 279 279 277 276 275 273 270 269 272 272 272 271 270
282 282 283 284 287 292 295 298 301 303 306 307 308 309 308 306 303 300 296 292 289 285 283 281 279 278 278 278 278 279 279 279 278 277 274 272 270 271 273 272 273 272 272
278 278 281 283 286 291 295 298 301 304 306 308 308 308 308 307 305 303 300 295 292 288 284 281 280 279 279 278 278 277 278 278 277 276 275 274 274 273 274 274 275 273 271
273 274 278 283 287 291 294 296 299 301 303 306 307 308 309 310 308 307 303 299 295 291 287 284 281 279 279 278 277 277 276 277 276 275 274 273 273 273 272 272 272 272 271
273 275 279 283 286 287 288 290 292 295 299 302 306 309 311 312 312 310 308 304 299 295 291 287 284 281 279 278 277 276 276 276 274 273 273 272 272 271 270 270 270 269 269
275 277 279 280 280 281 283 285 289 293 298 302 306 310 312 314 313 311 310 307 303 298 294 290 286 283 280 278 277 276 276 275 274 273 272 272 271 270 269 269 267 266 267
278 279 279 279 280 282 285 288 292 296 300 304 307 310 312 313 314 313 311 309 306 302 298 293 289 286 282 279 277 276 275 274 273 273 272 271 270 268 267 267 265 263 264
285 284 283 284 285 287 289 292 296 299 303 305 307 309 310 311 312 312 311 310 307 304 301 297 293 289 285 281 277 275 273 272 271 271 270 269 267 266 264 262 262 261 261
285 284 285 287 289 292 294 297 299 301 303 304 305 306 307 308 309 310 309 308 306 305 302 299 296 292 288 283 279 275 273 272 270 269 267 265 263 263 260 257 257 257 256
286 287 289 292 294 296 298 299 300 300 301 302 303 303 304 304 304 306 307 306 305 304 302 300 298 295 290 286 281 278 274 271 268 266 263 260 260 259 255 253 252 251 250
288 290 292 294 295 296 297 298 298 298 299 300 300 300 300 300 300 302 303 303 303 303 302 300 298 296 292 287 283 279 275 270 266 263 260 257 255 253 250 250 246 243 243
290 292 293 293 294 295 295 296 297 297 297 297 297 297 297 297 297 297 298 299 299 300 300 299 297 295 293 289 284 279 275 269 263 261 257 252 249 246 244 243 243 242 238
291 291 291 291 291 293 294 294 294 294 294 294 294 294 294 293 293 293 294 294 295 296 297 296 295 293 292 288 284 279 273 264 259 255 250 248 245 242 239 240 240 237 232
290 290 290 290 290 291 291 290 291 290 290 290 290 290 290 289 289 289 289 289 290 291 291 291 292 290 289 286 284 280 271 259 254 250 248 248 243 240 238 236 234 232 234
290 290 289 289 288 288 287 287 287 287 287 287 287 286 286 285 285 285 284 283 283 284 285 286 286 286 285 282 279 276 268 260 253 249 245 243 242 237 233 233 232 231 228
289 288 287 287 286 286 286 286 286 286 286 286 284 283 282 280 280 279 278 276 277 277 279 279 278 278 279 277 274 270 263 254 247 243 240 238 235 232 230 228 226 223 220
289 289 289 289 288 288 287 287 287 287 286 285 283 281 279 276 274 272 270 269 268 268 269 270 270 269 270 269 266 259 254 247 238 232 228 225 223 220 220 219 215 211 211
292 292 291 291 290 290 289 289 288 288 286 284 281 278 274 271 268 265 262 261 259 258 259 261 261 259 259 257 252 249 247 237 227 223 218 211 209 206 206 205 203 201 204
295 294 293 293 292 292 291 290 289 288 286 282 278 274 270 267 263 258 255 252 251 250 250 252 251 250 249 247 243 240 234 223 216 212 206 200 196 195 196 196 193 192 192
297 297 296 295 295 294 293 292 290 288 285 281 277 273 267 263 257 253 249 244 244 242 242 244 241 239 239 237 234 229 223 215 209 206 202 198 195 193 191 188 188 189 190
301 300 299 299 299 298 297 295 293 291 288 283 279 274 267 261 254 249 244 238 237 235 235 232 230 229 228 226 224 219 213 206 203 200 197 196 195 192 189 188 190 192 196
304 303 303 303 302 300 299 298 296 295 292 287 282 273 267 260 252 245 238 234 232 228 225 221 220 220 219 217 216 213 205 199 198 196 195 195 195 193 192 194 196 200 207
306 306 306 305 304 301 300 299 298 296 294 290 284 275 269 258 248 239 233 228 224 220 218 214 211 212 212 211 209 206 200 197 197 196 194 193 193 194 198 203 207 212 219
308 308 307 307 306 304 304 302 299 298 296 292 284 277 269 255 242 234 226 221 217 215 211 207 205 206 208 208 206 203 200 197 196 195 194 195 198 202 206 210 216 223 229